Location: Jastrz?bniki
(50.3667°N, 20.3833°E)
Time: 10:43:12
(UTC+00:00)

Cosmos 2263 Rocket - Pass Details

Date: 05 August 2024
Orbit: 822 x 849 km, 71.0° (Epoch: 09 September)

Event Time Altitude Azimuth Distance (km) Brightness Sun altitude
Rises 00:29:46 0° 315° (NW) 3,398 5.6 -18.9°
Reaches altitude 10° 00:33:49 10° 287° (WNW) 2,463 4.5 -18.6°
Maximum altitude 00:35:56 12° 265° (W) 2,307 4.2 -18.4°
Enters shadow 00:35:58 12° 264° (W) 2,307 4.2 -18.4°
